Regional Weather Roundup
Issued by NWS

Home | Current Version | Previous Version | Text Only | Print | Product List | Glossary Off
Versions: 1 2 3 4 5 6 7 8 9 10 11 12 13 14 15 16 17 18 19 20 21 22 23 24 25 26 27 28 29 30 31 32 33 34 35 36 37 38 39 40 41 42 43 44 45 46 47 48 49 50

614
ASUS45 KBOU 240210
RWRCO

WEATHER ROUNDUP FOR COLORADO
NATIONAL WEATHER SERVICE DENVER/BOULDER CO
700 PM MST TUE JAN 23 2018

NOTE: "FAIR" INDICATES FEW OR NO CLOUDS BELOW 12000 FEET WITH NO
SIGNIFICANT WEATHER AND/OR OBSTRUCTIONS TO VISIBILITY.

COZ001>005-013-030-031-240300-
...NORTHWEST COLORADO...

CITY           SKY/WX    TMP DP  RH WIND       PRES   REMARKS
CRAIG          FAIR      10   4  76 CALM      30.35R
HAYDEN         FAIR      13  10  88 CALM      30.35R
MEEKER         FAIR      11   8  88 CALM      30.34R
RABBIT EARS PA CLOUDY   N/A N/A N/A W9G18     30.22R
STEAMBOAT SPGS FAIR      17  12  79 SE3       30.32S
WALDEN         FAIR      14   3  62 SE6       30.27S WCI   5
$$

COZ006>008-011-240300-
...WEST CENTRAL VALLEYS...

CITY           SKY/WX    TMP DP  RH WIND       PRES   REMARKS
GRAND JUNCTION FAIR      23  19  85 NE3       30.36R
MONTROSE       FAIR      25  12  58 NE5       30.38R WCI  19
EAGLE          FAIR      24  12  60 E10       30.36R WCI  14
RIFLE          FAIR      28  20  71 SE6       30.35R WCI  22
DELTA          FAIR      31  19  59 CALM      30.36R
NUCLA          FAIR      32  16  51 CALM      30.38R
$$

COZ017>023-064>068-240300-
...SOUTHWEST COLORADO...

CITY           SKY/WX    TMP DP  RH WIND       PRES   REMARKS
DURANGO        FAIR      26  18  71 CALM      30.32R
CORTEZ         FAIR      25  17  72 E3        30.33R
PAGOSA SPRINGS FAIR      20  19  95 CALM      30.32R
TELLURIDE      FAIR      21  10  63 E6        30.33S WCI  13
WOLF CREEK PAS FAIR      16  -8  35 SW8       30.33R WCI   5
$$

COZ009-010-012-014-032>034-037-058>063-240300-
...CENTRAL COLORADO...

CITY           SKY/WX    TMP DP  RH WIND       PRES   REMARKS
ASPEN          FAIR      17   8  67 SW8       30.32R WCI   7
BUENA VISTA    FAIR      21   3  45 CALM      30.26S
COPPER MTN     NOT AVBL
BERTHOUD PASS  FAIR       3  -8  60 NW36G44   30.14S HAZE    WCI -23
COTTONWOOD PAS FAIR      28   3  34 W12G25    30.25S WCI  18
GUNNISON       FAIR      17   9  70 CALM      30.32
KREMMLING      FAIR      19  10  68 CALM      30.32R
LEADVILLE      FAIR      13   2  61 CALM      30.26R
MONARCH PASS     N/A      9   5  85 W36       30.32R WCI -16
SALIDA         FAIR      27   8  44 SW10      30.34S WCI  18
SUNLIGHT       FAIR      10   5  79 S7        30.32R WCI   0
WILKERSON PASS FAIR      14  -4  44 NW5       30.24S WCI   6
$$

COZ069>075-240300-
...SAN LUIS VALLEY/SANGRE DE CRISTO MOUNTAINS...

CITY           SKY/WX    TMP DP  RH WIND       PRES   REMARKS
ALAMOSA        FAIR      19   8  62 NE3       30.29R
DEL NORTE      FAIR      16   0  50 CALM      30.30R
LA VETA PASS   FAIR      18   5  57 SW24G31     N/A  WCI   0
SAGUACHE       FAIR      19  10  68 N7        30.29S WCI  10
$$

COZ035-036-038>040-240300-
...NORTHERN COLORADO FRONT RANGE...

CITY           SKY/WX    TMP DP  RH WIND       PRES   REMARKS
DENVER INTL AP FAIR      19  10  68 SE13      30.26R WCI   6
DMNS CITY PARK NOT AVBL
AURORA         CLEAR     24  13  61 SE13      30.25R WCI  13
FRONT RANGE AP PTCLDY    23  12  63 SE7       30.27R WCI  15
ERIE MUNI ARPT FAIR      30  13  50 SE10      30.32R WCI  21
BOULDER MUN AP FAIR      28  16  59 CALM      30.26R
CENTENNIAL     FAIR      26  10  50 S9        30.24R WCI  17
BROOMFIELD     PTCLDY    30  10  43 W12       30.25R WCI  21
FORT COLLINS   FAIR      25  15  66 S9        30.27R WCI  15
LONGMONT       FAIR      28  15  57 E6        30.28R WCI  22
$$

COZ041-046-047-076>085-087-088-240300-
...PIKES PEAK/PALMER DIVIDE AND SOUTHERN FOOTHILLS...

CITY           SKY/WX    TMP DP  RH WIND       PRES   REMARKS
COLO. SPRINGS  FAIR      28  10  46 E6        30.26R WCI  22
A. F. ACADEMY  FAIR      27   7  42 NW5       30.24R WCI  22
SCHRIEVER AFB  FAIR      25   9  49 CALM      30.27R
CHEYENNE MTN   FAIR      31   3  30 SW12G18   30.18R WCI  22
ELLICOTT         N/A    N/A N/A N/A E8        30.25R
FALCON         FAIR      24   7  48 CALM      30.26R
FORT CARSON    FAIR      31   5  33 SW7       30.25R WCI  24
LIMON          FAIR      20  12  71 CALM      30.28R
MONUMENT HILL  FAIR      21   5  49 S9        30.25R WCI  11
CANON CITY     FAIR      32  14  47 N9        30.26R WCI  24
WALSENBURG     NOT AVBL
TRINIDAD       FAIR      29  10  45 CALM      30.26R
$$

COZ042>045-048>051-090-091-240300-
...NORTHEAST COLORADO...

CITY           SKY/WX    TMP DP  RH WIND       PRES   REMARKS
GREELEY ARPT   FAIR      25  16  68 SE6       30.29R WCI  18
AKRON          FAIR      23  14  68 N3        30.28R
BURLINGTON     FAIR      17  13  84 W7        30.30R WCI   8
WRAY           FAIR      23  18  80 W8        30.30R WCI  14
YUMA           FAIR      19  14  79 W7        30.29R WCI  10
STERLING       FAIR      23  18  80 NW3       30.28R
HOLYOKE        FAIR      30  19  64 NW7       30.27S WCI  23
FORT MORGAN    FAIR      24  14  65 CALM      30.29R
$$

COZ086-089-092>099-240300-
...SOUTHEAST COLORADO...

CITY           SKY/WX    TMP DP  RH WIND       PRES   REMARKS
PUEBLO         FAIR      28  10  46 E7        30.26R WCI  21
LA JUNTA       FAIR      30  17  58 E6        30.28R WCI  24
LAMAR          FAIR      24  15  68 S6        30.29R WCI  17
SPRINGFIELD      N/A     24  12  60 S3        30.30R
$$




USA.gov is the U.S. government's official web portal to all federal, state and local government web resources and services.